Vertical_Velocity
1 -1 1 -1 -2 -1 1 -3 1 -3 2 -3 -3 -1 -1 -2 -2 -1 -1 -1 -1 -1 -1 -2 -2 -1 -1 -0 1 1 -1 0 -1 0 1 0 1 -0 -1 -2 -1 -1 0 -0
-1 1 -0 -1 0 0 1 -0 2 1 -4 2 -0 -0 -0 -2 -1 -1 -2 -2 -2 -1 -0 -0 -0 -1 -1 -1 -1 1 -0 -2 0 -1 -1 -2 -2 -0 -0 0 1 -1 0 0
-1 -1 -0 -0 -1 -0 -1 -2 -2 -1 -1 -2 -1 -0 0 -3 -1 -3 -3 -2 -2 -1 -1 -1 1 1 -2 -1 -1 1 2 -1 -1 -1 -1 -0 1 1 1 1 -1 -2 -0 1
-0 -0 -1 -1 1 1 0 0 -1 -1 0 0 -0 -2 -2 -2 -1 -0 -0 -1 -2 -1 -2 -1 -0 -1 -0 -2 -1 2 1 -2 -1 2 2 1 2 -1 -0 0 -1 -1 0 -0
0 -0 -0 -0 -0 -1 -1 -0 1 1 1 -0 0 -0 -6 3 -0 -0 -0 -2 -1 -2 -3 -1 -1 -1 -0 -4 -1 -0 0 -1 -2 1 -0 -3 -1 -2 -1 1 -1 -0 -0 -1
-1 -2 -1 1 -0 -1 -1 1 -1 1 2 4 2 4 -4 -3 -2 0 -1 -1 0 -3 -1 -0 -3 -1 -0 -3 -1 -4 -1 0 2 2 2 -0 -1 -0 -1 0 0 -1 1 -0
0 -0 -2 -2 -1 -0 -1 1 -0 -1 -1 -1 -2 -4 3 -1 -1 -5 -0 2 -1 2 2 -2 -1 0 2 1 -6 -2 -1 -1 -1 -1 1 -0 -1 -2 -2 -1 1 1 2 -3
-1 -1 -1 0 -1 1 0 1 2 1 -0 -1 -2 0 0 1 2 3 2 -0 -5 4 5 -1 -1 1 2 3 -7 -2 -2 -2 -2 -2 -1 -0 -1 -0 -1 -1 -2 -1 -1 1
-1 -3 -3 -3 -1 2 5 2 -1 -1 -1 2 5 2 3 4 2 1 -0 -1 -2 -0 1 -2 -2 -0 4 -5 -1 4 2 -1 -0 0 1 -1 1 -0 -1 -2 0 2 1 1
1 -2 -3 -3 -3 2 2 -1 1 -0 0 1 4 0 4 3 2 3 -0 1 -1 -1 -2 -1 -3 -1 -1 1 -1 0 1 0 1 4 3 0 1 0 4 2 1 1 1 3
7 1 -2 0 2 -0 -1 -1 -2 -3 -3 -2 2 -3 2 -0 1 0 1 3 2 1 -2 -2 2 -1 -2 2 3 1 -1 -2 -1 0 -2 -1 0 -1 0 -3 1 2 -2 3
7 3 -1 -5 1 2 1 0 -1 3 -2 -6 -2 -3 0 -4 -3 -3 1 -1 -2 -5 1 3 1 -4 -3 2 2 3 5 -1 -0 -1 -2 0 3 -2 1 0 -4 -4 -1 2
-1 -0 -1 1 -1 2 -0 -1 -2 -3 2 1 -6 4 1 2 -2 -1 -5 -6 -8 -4 -2 -1 -0 2 3 -1 -4 -1 5 -0 -0 1 2 1 1 2 -4 -4 5 0 1 1
0 -0 0 2 -2 -3 -3 -2 -2 -2 -1 2 3 -4 -1 -1 -0 -1 1 1 -0 0 0 -0 -2 -5 1 -2 2 1 0 -1 1 1 3 2 0 0 5 4 -6 -1 3 1
-1 2 -0 1 -1 0 0 1 -3 -1 -2 -3 -5 1 -2 0 -2 -3 -4 -1 -2 -4 -3 1 -1 -1 -1 -3 -4 -4 -5 -3 -1 -1 -0 -1 1 3 4 3 4 2 -6 -9
-2 -2 -4 -4 -5 -3 -1 0 1 -1 -3 -3 -3 -3 -5 -4 -1 -0 -1 -2 1 2 -1 1 -6 -0 -1 -1 -1 -0 -1 -1 -2 -3 -2 2 2 2 2 4 4 4 2 -1
-2 -3 -2 1 2 -2 -3 -3 -3 0 1 -5 -3 -1 0 -1 -1 -3 -1 -2 -3 -4 -7 -0 0 -3 -1 2 -0 -2 -1 1 2 1 3 3 1 3 1 2 1 1 2 -3
0 -0 -0 2 0 1 0 -4 -4 -3 -1 0 1 2 -0 -2 -4 0 0 -0 -1 -1 -7 -5 1 -0 -1 -2 0 2 3 2 1 2 -1 -0 1 1 -2 -1 1 0 2 -1
2 2 -3 -1 -3 -2 1 1 -3 1 1 -5 -3 -0 -1 -0 -2 -1 -2 3 -3 -6 11 -5 -5 2 -2 -3 -3 2 -1 -2 -1 -0 -2 -1 0 3 2 1 1 -0 1 3
-1 -3 -0 0 1 -2 1 -0 -4 1 2 -4 0 2 -1 5 -2 -5 -5 1 2 -6 1 2 -2 -0 -4 -0 -5 1 1 -1 -1 2 1 -0 -2 3 1 -0 2 1 1 -0
-0 1 0 -2 -2 -1 -3 -3 -0 2 2 -1 -5 -0 -1 4 2 -2 -2 -9 17 -9 -3 -0 -4 -1 -4 -1 -1 -1 -1 0 -1 -0 -0 -1 -1 -0 2 1 1 0 1 1
-1 0 -2 -4 -3 -1 2 0 -0 -3 -4 -4 -4 -4 -7 -1 -2 -0 1 -9 7 -0 -1 3 0 0 1 -3 -0 -1 1 1 0 -1 0 0 -0 1 2 2 1 -0 0 2
-0 -2 -3 -2 -5 -5 -2 3 -3 -7 -5 -3 -1 3 -1 -4 -4 -5 -2 16 -6 -4 -6 2 -1 -4 -3 -3 1 -1 -2 -2 -1 1 1 2 0 -1 -1 2 2 0 -0 0
-8 -3 -6 -2 -3 -4 -6 4 -6 -1 -5 -4 -2 1 -2 -1 4 -3 -9 -5 2 -1 -1 0 2 -1 -4 -2 1 1 0 -1 -0 -1 -1 -3 0 1 1 -1 -1 -3 -3 -3
-6 -5 -5 -5 -7 0 -3 -5 -4 0 -2 -4 -0 0 -3 -0 -16 2 -1 -2 -3 -4 -0 1 -4 1 2 -1 -2 2 3 2 1 -0 -1 -1 -2 -1 -1 -1 -1 -2 -2 -3
-4 -5 -3 -3 -3 -1 -4 -3 -6 2 -3 -4 4 0 0 1 -1 -6 -2 3 -2 -2 -0 2 -1 -3 -1 2 1 0 0 3 2 0 -1 -1 -0 0 0 1 2 -0 -1 1
-4 -3 -4 -3 3 -2 -2 -5 -3 -2 -2 -7 -7 5 -2 0 -1 -3 -2 -2 1 -0 -2 -1 3 2 -0 1 2 2 2 0 -1 0 0 2 2 1 1 2 1 0 0 -0
Height
5732 5733 5733 5734 5734 5734 5735 5734 5735 5734 5734 5733 5732 5732 5730 5729 5727 5725 5724 5722 5720 5719 5717 5715 5714 5713 5713 5713 5713 5714 5715 5716 5716 5716 5716 5717 5717 5717 5716 5715 5713 5711 5708 5705
5730 5730 5730 5730 5731 5731 5731 5731 5731 5731 5730 5730 5728 5727 5726 5724 5722 5720 5717 5715 5713 5712 5710 5709 5708 5707 5706 5706 5705 5706 5707 5709 5710 5710 5710 5711 5711 5711 5710 5709 5707 5705 5702 5699
5729 5729 5729 5730 5728 5728 5728 5727 5726 5725 5724 5723 5722 5720 5719 5717 5716 5713 5710 5708 5705 5702 5701 5700 5699 5699 5698 5697 5695 5697 5700 5702 5703 5704 5705 5705 5705 5704 5703 5702 5700 5698 5696 5693
5726 5725 5726 5725 5724 5723 5723 5722 5721 5720 5719 5718 5716 5714 5713 5711 5709 5707 5704 5702 5699 5696 5693 5690 5689 5690 5690 5689 5689 5691 5693 5694 5696 5697 5698 5698 5698 5697 5695 5694 5692 5690 5688 5685
5721 5721 5721 5720 5720 5719 5718 5717 5716 5715 5714 5712 5711 5710 5706 5706 5704 5702 5700 5697 5693 5690 5686 5683 5682 5683 5683 5683 5683 5685 5685 5687 5689 5690 5689 5689 5689 5688 5687 5686 5684 5682 5679 5676
5717 5716 5715 5714 5714 5713 5713 5713 5711 5710 5708 5707 5705 5704 5701 5699 5697 5695 5693 5691 5688 5685 5681 5678 5676 5677 5677 5676 5678 5677 5678 5682 5682 5682 5682 5681 5680 5679 5678 5677 5675 5673 5670 5666
5710 5709 5709 5708 5707 5706 5706 5708 5703 5702 5700 5699 5697 5696 5695 5692 5689 5687 5685 5683 5681 5679 5677 5673 5671 5670 5670 5669 5668 5671 5672 5673 5673 5673 5672 5671 5670 5669 5668 5667 5665 5663 5660 5655
5703 5702 5701 5699 5699 5700 5700 5698 5696 5693 5692 5690 5689 5688 5686 5684 5681 5679 5678 5675 5673 5673 5670 5667 5665 5664 5662 5660 5659 5662 5664 5665 5663 5662 5662 5661 5660 5659 5657 5655 5654 5651 5648 5645
5697 5694 5692 5692 5691 5691 5691 5690 5687 5685 5683 5682 5681 5679 5678 5676 5673 5671 5669 5666 5664 5663 5661 5658 5656 5655 5654 5652 5651 5652 5653 5653 5653 5652 5651 5649 5648 5646 5644 5641 5640 5638 5635 5632
5686 5683 5682 5682 5682 5682 5681 5679 5677 5674 5672 5670 5670 5668 5667 5665 5664 5662 5659 5657 5655 5652 5650 5648 5645 5645 5645 5643 5642 5642 5641 5640 5639 5639 5637 5635 5634 5632 5630 5627 5624 5623 5621 5617
5676 5675 5672 5672 5669 5669 5668 5667 5665 5663 5661 5659 5658 5657 5656 5655 5653 5651 5650 5647 5645 5643 5641 5638 5635 5632 5631 5631 5631 5631 5629 5627 5625 5623 5622 5620 5617 5615 5613 5611 5608 5606 5604 5601
5663 5663 5661 5660 5658 5656 5653 5651 5649 5649 5648 5645 5645 5644 5643 5641 5640 5638 5637 5634 5632 5630 5628 5627 5624 5622 5619 5617 5616 5614 5613 5611 5609 5608 5605 5603 5601 5598 5595 5593 5590 5588 5586 5584
5648 5645 5645 5646 5644 5642 5640 5637 5635 5633 5633 5632 5629 5628 5627 5626 5624 5622 5620 5618 5616 5615 5612 5610 5609 5606 5605 5603 5600 5597 5595 5594 5592 5589 5587 5584 5582 5581 5578 5574 5573 5569 5566 5564
5634 5632 5629 5627 5626 5625 5624 5623 5621 5619 5618 5616 5615 5612 5610 5608 5606 5604 5602 5599 5596 5594 5592 5590 5589 5588 5587 5585 5583 5580 5577 5575 5572 5570 5567 5565 5563 5561 5559 5557 5552 5550 5549 5547
5616 5616 5614 5611 5610 5609 5608 5607 5605 5603 5601 5598 5595 5593 5591 5589 5586 5584 5581 5580 5577 5574 5572 5570 5568 5567 5565 5563 5562 5560 5558 5556 5552 5549 5547 5545 5543 5541 5538 5536 5534 5530 5527 5524
5600 5599 5598 5596 5595 5593 5591 5589 5587 5585 5582 5579 5577 5574 5570 5567 5564 5562 5560 5557 5555 5553 5552 5549 5546 5545 5543 5541 5538 5536 5534 5532 5530 5528 5525 5522 5521 5519 5517 5515 5512 5510 5507 5506
5584 5583 5582 5580 5579 5576 5573 5570 5568 5565 5562 5558 5555 5552 5549 5547 5545 5541 5539 5535 5533 5530 5527 5526 5525 5522 5520 5517 5515 5513 5511 5508 5506 5504 5502 5500 5498 5496 5494 5493 5491 5490 5487 5485
5569 5567 5566 5563 5560 5558 5554 5550 5547 5544 5540 5537 5535 5532 5529 5525 5523 5521 5518 5515 5511 5509 5503 5503 5502 5498 5496 5494 5491 5490 5487 5485 5483 5481 5479 5478 5476 5474 5473 5472 5471 5470 5469 5467
5553 5551 5548 5544 5540 5538 5535 5531 5528 5526 5522 5518 5516 5513 5509 5504 5500 5498 5495 5494 5489 5487 5486 5481 5479 5478 5476 5473 5471 5470 5468 5465 5464 5462 5460 5459 5458 5456 5455 5454 5453 5451 5450 5449
5536 5532 5529 5526 5523 5519 5517 5513 5510 5508 5503 5500 5497 5493 5489 5486 5479 5476 5473 5473 5470 5465 5463 5462 5460 5459 5456 5454 5452 5452 5452 5450 5449 5447 5445 5444 5443 5442 5440 5438 5437 5435 5433 5432
5518 5516 5513 5509 5506 5503 5498 5494 5489 5486 5483 5479 5473 5470 5465 5464 5459 5454 5451 5450 5453 5444 5443 5443 5442 5441 5440 5438 5436 5436 5435 5434 5433 5431 5430 5428 5427 5426 5424 5423 5422 5420 5419 5417
5501 5497 5494 5490 5487 5485 5480 5475 5469 5465 5461 5457 5451 5446 5441 5439 5436 5434 5430 5425 5427 5426 5423 5422 5422 5422 5420 5419 5420 5420 5419 5418 5417 5416 5415 5414 5413 5411 5409 5408 5407 5405 5403 5402
5483 5479 5475 5471 5466 5462 5461 5455 5449 5443 5439 5435 5431 5427 5420 5417 5415 5412 5411 5410 5403 5403 5401 5401 5399 5399 5398 5398 5400 5399 5400 5400 5400 5400 5400 5399 5398 5397 5395 5393 5391 5389 5388 5386
5462 5459 5455 5451 5446 5443 5439 5436 5428 5424 5420 5417 5414 5409 5403 5398 5398 5393 5388 5387 5386 5381 5381 5379 5377 5375 5376 5377 5378 5378 5379 5380 5381 5381 5382 5382 5381 5380 5378 5377 5375 5373 5370 5368
5442 5439 5435 5432 5428 5424 5417 5414 5411 5407 5402 5399 5397 5394 5388 5382 5376 5376 5369 5366 5364 5361 5359 5358 5357 5356 5355 5355 5357 5359 5360 5361 5362 5363 5364 5363 5362 5361 5360 5357 5354 5351 5350 5347
5425 5422 5418 5415 5411 5405 5401 5397 5394 5391 5386 5383 5383 5379 5374 5369 5364 5359 5355 5350 5348 5346 5342 5340 5339 5339 5339 5339 5339 5341 5343 5344 5345 5346 5346 5346 5345 5344 5343 5340 5338 5336 5334 5331
5410 5406 5402 5400 5395 5388 5385 5381 5376 5376 5374 5370 5367 5365 5359 5356 5352 5347 5343 5339 5334 5331 5329 5328 5327 5326 5326 5326 5326 5327 5329 5330 5330 5330 5330 5329 5329 5328 5327 5325 5323 5321 5320 5318